Montauk, NY
on Wednesday, December 6, 2017

Wednesday
       
Previous Day Next Day
Daily Summary
 ActualAverage (KHTO)Record (KHTO)
Temperature
Mean Temperature °F °C °F °C  
Max Temperature 59°F 15°C 46°F 7°C 64°F 17°C (2001)
Min Temperature 43°F 6°C 30°F -1°C 15°F -9°C (1935)
Degree Days
Heating Degree Days 14    
Growing Degree Days1 (Base °F °C )  
Moisture
Dew Point 37°F 3°C   
Average Humidity 66    
Maximum Humidity 100    
Minimum Humidity 44    
Precipitation
Precipitation 0.43 in / 10.92 cm in / cm in / cm ()
Wind
Wind Speed 12 mph / 19 km/h   
Max Wind Speed 16 mph / 26 km/h   
Max Gust Speed 31 mph / 50 km/h   
Averages and records for this station are not official NWS values.
Key: T is trace of precipitation, MM is missing value
Source: NWS Daily Summary
Seasonal Weather Averages
Time(EST)TemperatureDew PointHumidity Pressure Visibility Wind DirectionWind SpeedGust SpeedPrecipitationEvents Conditions
12:54 AM 59.0°F 15.0°C 57.9°F 14.4°C 96% 29.82 in / 1009.7 hPa - SSW 13.8 mph / 22.2 km/h 25.3 mph / 40.7 km/h 0.17 in / 4.3 cm   Unknown
1:54 AM 59.0°F 15.0°C 57.9°F 14.4°C 96% 29.83 in / 1010.0 hPa - SW 11.5 mph / 18.5 km/h 25.3 mph / 40.7 km/h 0.13 in / 3.3 cm   Unknown
2:54 AM 59.0°F 15.0°C 57.9°F 14.4°C 96% 29.83 in / 1009.9 hPa - WSW 10.4 mph / 16.7 km/h 23.0 mph / 37.0 km/h 0.08 in / 2.0 cm   Unknown
3:54 AM 57.9°F 14.4°C 57.9°F 14.4°C 100% 29.82 in / 1009.7 hPa - SW 9.2 mph / 14.8 km/h 20.7 mph / 33.3 km/h 0.03 in / 0.8 cm   Unknown
4:54 AM 57.9°F 14.4°C 57.0°F 13.9°C 97% 29.82 in / 1009.8 hPa - SW 10.4 mph / 16.7 km/h 20.7 mph / 33.3 km/h 0.01 in / 0.3 cm   Unknown
5:54 AM 52.0°F 11.1°C 48.9°F 9.4°C 89% 29.87 in / 1011.5 hPa - WNW 16.1 mph / 25.9 km/h 31.1 mph / 50.0 km/h 0.01 in / 0.3 cm   Unknown
6:54 AM 50.0°F 10.0°C 44.1°F 6.7°C 80% 29.88 in / 1011.8 hPa - West 11.5 mph / 18.5 km/h 18.4 mph / 29.6 km/h N/A   Unknown
7:54 AM 50.0°F 10.0°C 43.0°F 6.1°C 77% 29.89 in / 1012.0 hPa - WSW 8.1 mph / 13.0 km/h - N/A   Unknown
8:54 AM 51.1°F 10.6°C 44.1°F 6.7°C 77% 29.92 in / 1013.0 hPa - West 11.5 mph / 18.5 km/h 19.6 mph / 31.5 km/h N/A   Unknown
9:54 AM 50.0°F 10.0°C 41.0°F 5.0°C 71% 29.93 in / 1013.5 hPa - West 15.0 mph / 24.1 km/h 21.9 mph / 35.2 km/h N/A   Unknown
10:54 AM 48.9°F 9.4°C 34.0°F 1.1°C 56% 29.93 in / 1013.4 hPa - West 15.0 mph / 24.1 km/h 23.0 mph / 37.0 km/h N/A   Unknown
11:54 AM 46.9°F 8.3°C 30.0°F -1.1°C 52% 29.92 in / 1013.1 hPa - West 11.5 mph / 18.5 km/h 19.6 mph / 31.5 km/h N/A   Unknown
12:54 PM 46.9°F 8.3°C 28.9°F -1.7°C 50% 29.92 in / 1013.0 hPa - West 15.0 mph / 24.1 km/h 20.7 mph / 33.3 km/h N/A   Unknown
1:54 PM 46.9°F 8.3°C 26.1°F -3.3°C 44% 29.91 in / 1012.9 hPa - WNW 12.7 mph / 20.4 km/h 20.7 mph / 33.3 km/h N/A   Unknown
2:54 PM 45.0°F 7.2°C 27.0°F -2.8°C 49% 29.93 in / 1013.5 hPa - West 12.7 mph / 20.4 km/h 21.9 mph / 35.2 km/h N/A   Unknown
3:54 PM 45.0°F 7.2°C 26.1°F -3.3°C 48% 29.93 in / 1013.5 hPa - West 12.7 mph / 20.4 km/h 23.0 mph / 37.0 km/h N/A   Unknown
4:54 PM 44.1°F 6.7°C 27.0°F -2.8°C 51% 29.95 in / 1014.1 hPa - WSW 10.4 mph / 16.7 km/h 19.6 mph / 31.5 km/h N/A   Unknown
5:54 PM 43.0°F 6.1°C 24.1°F -4.4°C 47% 29.96 in / 1014.6 hPa - WSW 11.5 mph / 18.5 km/h 20.7 mph / 33.3 km/h N/A   Unknown
6:54 PM 43.0°F 6.1°C 26.1°F -3.3°C 51% 29.98 in / 1015.0 hPa - WSW 9.2 mph / 14.8 km/h - N/A   Unknown
7:54 PM 43.0°F 6.1°C 25.0°F -3.9°C 49% 29.98 in / 1015.0 hPa - WSW 9.2 mph / 14.8 km/h - N/A   Unknown
8:54 PM 43.0°F 6.1°C 26.1°F -3.3°C 51% 29.97 in / 1014.9 hPa - West 5.8 mph / 9.3 km/h - N/A   Unknown
10:54 PM 45.0°F 7.2°C 26.1°F -3.3°C 48% 29.99 in / 1015.6 hPa - West 10.4 mph / 16.7 km/h 17.3 mph / 27.8 km/h N/A   Unknown
11:54 PM 45.0°F 7.2°C 25.0°F -3.9°C 46% 29.99 in / 1015.4 hPa - WNW 8.1 mph / 13.0 km/h - N/A   Unknown